Weather History for Provo, UT

Change the Weather History Date:

Tuesday, January 28, 2014

  Actual Average Record
Temperature  
Mean Temperature 25 °F -  
Max Temperature 35 °F 36 °F 48 °F (1987)
Min Temperature 15 °F 22 °F -6 °F (1989)
Degree Days  
Heating Degree Days 40    
Moisture  
Dew Point 19 °F    
Average Humidity 80    
Maximum Humidity 100    
Minimum Humidity 56    
Precipitation  
Precipitation 0.00 in - - ()
Sea Level Pressure  
Sea Level Pressure 30.27 in    
Wind  
Wind Speed 2 mph (North)    
Max Wind Speed 6 mph    
Max Gust Speed -    
Visibility 6 miles    
Events      
Averages and records for this station are not official NWS values.
T = Trace of Precipitation, MM = Missing Value Source: NWS Daily Summary

Daily Weather History Graph

Daily Weather History Graph

Search for Another Location

Airport:

Trip Planner

Search our weather history database for the weather conditions in past years. The results will help you decide how hot, cold, wet, or windy it might be!

Date:

Astronomy

Jan. 28, 2014 Rise Set
Actual Time 7:39 AM MST 5:40 PM MST
Civil Twilight 7:10 AM MST 6:09 PM MST
Nautical Twilight 6:37 AM MST 6:42 PM MST
Astronomical Twilight 6:05 AM MST 7:14 PM MST
Moon 5:24 AM MST (1/28) 3:35 PM MST (1/28)
Length of Visible Light 10h 59m
Length of Day
10h 01m
Waning Crescent, 7% of the Moon is Illuminated
Jan 28
Waning Crescent
Jan 30
New
Feb 6
First Quarter
Feb 14
Full
Feb 22
Last Quarter

Hourly Weather History & Observations

Time (MST) Temp. Windchill Dew Point Humidity Pressure Visibility Wind Dir Wind Speed Gust Speed Precip Events Conditions
12:15 AM 24.8 °F 20.5 °F 17.6 °F 74% 30.20 in 5.0 mi NNW 3.5 mph - N/A   Clear
12:35 AM 24.8 °F 17.9 °F 19.4 °F 80% 30.21 in 5.0 mi North 5.8 mph - N/A   Clear
12:55 AM 24.8 °F - 21.2 °F 86% 30.22 in 5.0 mi Calm Calm - N/A   Clear
1:15 AM 26.6 °F - 23.0 °F 86% 30.23 in 5.0 mi Calm Calm - N/A   Clear
1:35 AM 26.6 °F - 19.4 °F 74% 30.23 in 5.0 mi Calm Calm - N/A   Clear
1:55 AM 26.6 °F - 21.2 °F 80% 30.23 in 5.0 mi Calm Calm - N/A   Clear
2:15 AM 26.6 °F 21.2 °F 21.2 °F 80% 30.24 in 5.0 mi NNW 4.6 mph - N/A   Clear
2:35 AM 24.8 °F - 23.0 °F 93% 30.25 in 5.0 mi Calm Calm - N/A   Clear
2:55 AM 26.6 °F 22.6 °F 21.2 °F 80% 30.26 in 5.0 mi North 3.5 mph - N/A   Clear
3:15 AM 21.2 °F 14.9 °F 15.8 °F 80% 30.26 in 4.0 mi East 4.6 mph - N/A   Clear
3:35 AM 19.4 °F 12.8 °F 17.6 °F 93% 30.26 in 3.0 mi East 4.6 mph - N/A   Clear
3:55 AM 19.4 °F - 19.4 °F 100% 30.26 in 3.0 mi Calm Calm - N/A   Clear
4:15 AM 19.4 °F 12.8 °F 15.8 °F 86% 30.26 in 4.0 mi West 4.6 mph - N/A   Clear
4:35 AM 19.4 °F - 14.0 °F 80% 30.26 in 3.0 mi Calm Calm - N/A   Clear
4:55 AM 19.4 °F - 17.6 °F 93% 30.27 in 3.0 mi Calm Calm - N/A   Clear
5:15 AM 19.4 °F - 15.8 °F 86% 30.27 in 3.0 mi Calm Calm - N/A   Clear
5:35 AM 17.6 °F - 15.8 °F 93% 30.27 in 3.0 mi Calm Calm - N/A   Clear
5:55 AM 19.4 °F - 17.6 °F 93% 30.27 in 3.0 mi Calm Calm - N/A   Clear
6:15 AM 17.6 °F 10.7 °F 15.8 °F 93% 30.28 in 3.0 mi NE 4.6 mph - N/A   Clear
6:35 AM 15.8 °F - 12.2 °F 86% 30.28 in 3.0 mi Calm Calm - N/A   Clear
6:53 AM 17.6 °F - 14.0 °F 86% 30.29 in 4.0 mi Calm Calm - N/A   Haze
7:58 AM 15.8 °F - 12.2 °F 86% 30.31 in 3.0 mi Calm Calm - N/A   Haze
8:56 AM 17.6 °F - 15.8 °F 93% 30.32 in 3.0 mi Calm Calm - N/A   Haze
9:56 AM 24.8 °F - 19.4 °F 80% 30.33 in 3.0 mi Calm Calm - N/A   Haze
10:47 AM 24.8 °F - 19.4 °F 80% 30.34 in 4.0 mi Calm Calm - N/A   Haze
11:53 AM 28.4 °F - 21.2 °F 74% 30.32 in 5.0 mi Calm Calm - N/A   Haze
12:53 PM 30.2 °F - 21.2 °F 69% 30.29 in 6.0 mi Calm Calm - N/A   Haze
1:48 PM 30.2 °F - 19.4 °F 64% 30.29 in 7.0 mi Calm Calm - N/A   Haze
2:55 PM 35.6 °F - 21.2 °F 56% 30.32 in 12.0 mi Calm Calm - N/A   Haze
3:55 PM 35.6 °F - 21.2 °F 56% 30.26 in 12.0 mi Calm Calm - N/A   Mostly Cloudy
4:57 PM 33.8 °F - 19.4 °F 56% 30.25 in 12.0 mi Calm Calm - N/A   Mostly Cloudy
5:51 PM 28.4 °F 23.3 °F 19.4 °F 69% 30.24 in 10.0 mi SSW 4.6 mph - N/A   Overcast
6:48 PM 26.6 °F - 17.6 °F 69% 30.25 in 10.0 mi Calm Calm - N/A   Mostly Cloudy
7:57 PM 26.6 °F - 17.6 °F 69% 30.26 in 10.0 mi Calm Calm - N/A   Mostly Cloudy
8:58 PM 28.4 °F - 23.0 °F 80% 30.26 in 10.0 mi Calm Calm - N/A   Mostly Cloudy
9:35 PM 28.4 °F - 23.0 °F 80% 30.27 in 10.0 mi Calm Calm - N/A   Clear
9:55 PM 26.6 °F - 19.4 °F 74% 30.27 in 10.0 mi Calm Calm - N/A   Partly Cloudy
10:15 PM 26.6 °F - 21.2 °F 80% 30.27 in 10.0 mi Calm Calm - N/A   Clear
10:35 PM 26.6 °F - 21.2 °F 80% 30.28 in 10.0 mi Calm Calm - N/A   Scattered Clouds
10:55 PM 26.6 °F - 21.2 °F 80% 30.27 in 9.0 mi Calm Calm - N/A   Mostly Cloudy
11:15 PM 26.6 °F - 21.2 °F 80% 30.27 in 9.0 mi Calm Calm - N/A   Overcast
11:35 PM 24.8 °F - 21.2 °F 86% 30.27 in 8.0 mi Calm Calm - N/A   Overcast
11:55 PM 26.6 °F - 21.2 °F 80% 30.25 in 8.0 mi Calm Calm - N/A   Overcast